Location: Lima
(44.6384°N, 112.5920°W)
Time: 13:26:02
(UTC+00:00)

SEEDS - Visible Passes

Search period start: 13 April 2024 00:00
Search period end: 23 April 2024 00:00
Orbit: 555 x 565 km, 97.7° (Epoch: 12 April)

Date Brightness Start Highest point End Pass type
(mag) Time Alt. Az. Time Alt. Az. Time Alt. Az.
13 Apr ? 10:47:18 10° NE 10:50:43 27° E 10:54:06 10° SSE visible
14 Apr ? 10:46:12 10° NE 10:49:36 26° E 10:52:57 10° SSE visible
15 Apr ? 10:45:07 10° NE 10:48:27 25° E 10:51:47 10° SSE visible
16 Apr ? 10:44:00 10° NE 10:47:18 25° E 10:50:35 10° SSE visible
17 Apr ? 10:42:52 10° NE 10:46:09 24° E 10:49:24 10° SSE visible
18 Apr ? 10:41:43 10° NE 10:44:58 23° E 10:48:10 10° SSE visible
19 Apr ? 10:40:34 10° NE 10:43:46 22° E 10:46:56 10° SSE visible
20 Apr ? 10:39:24 10° NE 10:42:33 22° E 10:45:40 10° SE visible
21 Apr ? 10:38:13 10° NE 10:41:19 21° E 10:44:24 10° SE visible
22 Apr ? 10:37:01 10° NE 10:40:04 21° E 10:43:05 10° SE visible
